Volver al catálogo

STARLINK-31342

ActivoComunicacionesVLEO
NORAD 59166·PAYLOAD·🇺🇸 United States

Lanzado Mar 4, 2024 desde Cape Canaveral Space Force Station

Loading…

Próximos Pases (próximas 24 horas)

TLE

ActualizadoSource: CelesTrak SupGP

Época: Sep 15, 2026, 03:10 UTC

1 59166C 24044Q   26258.13243056  .00047352  00000+0  17151-2 0  2583
2 59166  43.0000 117.0868 0001493 269.0578 289.4699 15.27554947    18

Sigue STARLINK-31342 en tiempo real con AllMySat

Download on the App Store